| time (UTC) | temp C | wind direction | speed KPH | gust KPH | rain 1hr cm | rain 24hr cm | rain mn cm | humidity % | barometer mb |
| 20260507185906 | 17 | 352 | 9.7 | 20.9 | 0.28 | 5.51 | 1.60 | 92 | 1009.7 |
| 20260507185406 | 17 | 341 | 11.3 | 27.4 | 0.33 | 5.51 | 1.60 | 92 | 1009.8 |
| 20260507184906 | 17 | 347 | 14.5 | 24.1 | 0.38 | 5.51 | 1.60 | 92 | 1009.9 |
| 20260507184406 | 17 | 346 | 12.9 | 29.0 | 0.38 | 5.44 | 1.55 | 92 | 1010.0 |
| 20260507183906 | 17 | 344 | 12.9 | 40.2 | 0.51 | 5.41 | 1.50 | 92 | 1010.2 |
| 20260507183407 | 17 | 351 | 14.5 | 32.2 | 0.66 | 5.36 | 1.45 | 92 | 1010.1 |
| 20260507182407 | 17 | 2 | 11.3 | 32.2 | 0.69 | 5.33 | 1.45 | 92 | 1010.2 |
| 20260507181907 | 17 | 340 | 14.5 | 27.4 | 0.69 | 5.31 | 1.42 | 92 | 1010.2 |
| 20260507181407 | 17 | 356 | 9.7 | 32.2 | 0.69 | 5.31 | 1.40 | 92 | 1010.3 |
| 20260507180908 | 17 | 353 | 16.1 | 27.4 | 0.64 | 5.26 | 1.37 | 92 | 1010.3 |
| 20260507180407 | 17 | 356 | 11.3 | 24.1 | 0.66 | 5.26 | 1.37 | 92 | 1010.4 |
| 20260507175907 | 17 | 12 | 14.5 | 33.8 | 0.66 | 5.23 | 1.32 | 92 | 1010.5 |
| 20260507175408 | 17 | 7 | 11.3 | 27.4 | 0.64 | 5.18 | 1.27 | 92 | 1010.4 |
| 20260507174906 | 17 | 3 | 16.1 | 32.2 | 0.61 | 5.13 | 1.22 | 92 | 1010.4 |
| 20260507174407 | 17 | 6 | 9.7 | 40.2 | 0.58 | 5.05 | 1.17 | 92 | 1010.5 |
| 20260507173907 | 17 | 354 | 8.0 | 24.1 | 0.46 | 4.90 | 0.99 | 92 | 1010.6 |
| 20260507173407 | 17 | 0 | 3.2 | 16.1 | 0.28 | 4.70 | 0.79 | 92 | 1010.5 |
| 20260507172907 | 17 | 0 | 11.3 | 25.7 | 0.28 | 4.67 | 0.79 | 92 | 1010.6 |
| 20260507171406 | 17 | 355 | 16.1 | 32.2 | 0.28 | 4.62 | 0.71 | 92 | 1010.9 |
| 20260507170407 | 17 | 354 | 12.9 | 32.2 | 0.25 | 4.60 | 0.71 | 92 | 1011.1 |
| 20260507165908 | 17 | 334 | 19.3 | 33.8 | 0.23 | 4.57 | 0.66 | 92 | 1011.1 |
| 20260507165406 | 17 | 343 | 9.7 | 27.4 | 0.23 | 4.55 | 0.64 | 92 | 1011.2 |
| 20260507164907 | 17 | 7 | 9.7 | 19.3 | 0.23 | 4.52 | 0.61 | 92 | 1011.2 |
| 20260507164408 | 17 | 341 | 16.1 | 32.2 | 0.18 | 4.47 | 0.58 | 92 | 1011.1 |
| 20260507163907 | 17 | 9 | 19.3 | 35.4 | 0.15 | 4.45 | 0.53 | 92 | 1011.1 |
| 20260507163407 | 17 | 9 | 11.3 | 35.4 | 0.13 | 4.42 | 0.51 | 92 | 1011.2 |
| 20260507162907 | 17 | 12 | 12.9 | 29.0 | 0.10 | 4.39 | 0.51 | 92 | 1011.1 |
| 20260507162406 | 17 | 6 | 16.1 | 35.4 | 0.08 | 4.37 | 0.48 | 92 | 1011.1 |
| 20260507161907 | 17 | 355 | 19.3 | 35.4 | 0.05 | 4.37 | 0.46 | 92 | 1011.1 |
| 20260507161407 | 17 | 340 | 17.7 | 32.2 | 0.05 | 4.34 | 0.43 | 92 | 1011.2 |
| 20260507160907 | 17 | 349 | 16.1 | 32.2 | 0.05 | 4.34 | 0.43 | 92 | 1011.2 |
| 20260507160406 | 17 | 350 | 14.5 | 29.0 | 0.05 | 4.34 | 0.43 | 92 | 1011.3 |
| 20260507155907 | 17 | 6 | 14.5 | 35.4 | 0.03 | 4.32 | 0.43 | 92 | 1011.4 |
| 20260507155406 | 17 | 352 | 14.5 | 33.8 | 0.03 | 4.32 | 0.43 | 92 | 1011.4 |
| 20260507154907 | 17 | 11 | 9.7 | 27.4 | 0.00 | 4.32 | 0.41 | 92 | 1011.4 |
| 20260507154407 | 17 | 351 | 11.3 | 25.7 | 0.00 | 4.32 | 0.41 | 92 | 1011.5 |
| 20260507153906 | 17 | 348 | 11.3 | 33.8 | 0.00 | 4.37 | 0.41 | 92 | 1011.5 |
| 20260507152908 | 17 | 353 | 11.3 | 37.0 | 0.00 | 4.39 | 0.41 | 92 | 1011.6 |
| 20260507152407 | 17 | 5 | 16.1 | 25.7 | 0.00 | 4.42 | 0.41 | 92 | 1011.7 |
| 20260507151907 | 17 | 0 | 19.3 | 40.2 | 0.00 | 4.47 | 0.41 | 92 | 1011.7 |
| 20260507150908 | 17 | 359 | 14.5 | 33.8 | 0.03 | 4.55 | 0.41 | 92 | 1011.9 |
| 20260507150407 | 17 | 23 | 12.9 | 32.2 | 0.03 | 4.55 | 0.41 | 92 | 1012.1 |
| 20260507145407 | 17 | 337 | 14.5 | 32.2 | 0.03 | 4.57 | 0.41 | 92 | 1012.3 |
| 20260507144907 | 17 | 1 | 11.3 | 25.7 | 0.03 | 4.57 | 0.41 | 92 | 1012.3 |
| 20260507144407 | 17 | 345 | 14.5 | 32.2 | 0.03 | 4.57 | 0.41 | 92 | 1012.5 |
| 20260507143907 | 17 | 11 | 12.9 | 35.4 | 0.05 | 4.57 | 0.41 | 92 | 1012.5 |
| 20260507143406 | 17 | 0 | 6.4 | 24.1 | 0.05 | 4.57 | 0.41 | 92 | 1012.5 |
| 20260507142906 | 17 | 353 | 12.9 | 32.2 | 0.10 | 4.57 | 0.41 | 92 | 1012.6 |
| 20260507142406 | 17 | 351 | 14.5 | 32.2 | 0.15 | 4.57 | 0.41 | 92 | 1012.7 |
| 20260507141906 | 17 | 20 | 11.3 | 32.2 | 0.15 | 4.57 | 0.41 | 92 | 1012.8 |
| 20260507141406 | 17 | 2 | 16.1 | 29.0 | 0.18 | 4.57 | 0.41 | 92 | 1012.8 |
| 20260507140906 | 17 | 12 | 14.5 | 25.7 | 0.18 | 4.55 | 0.38 | 92 | 1012.9 |
| 20260507140406 | 17 | 339 | 8.0 | 24.1 | 0.18 | 4.55 | 0.38 | 92 | 1012.9 |
| 20260507135907 | 17 | 0 | 9.7 | 29.0 | 0.20 | 4.55 | 0.38 | 92 | 1013.0 |
| 20260507135408 | 17 | 27 | 9.7 | 25.7 | 0.23 | 4.55 | 0.38 | 92 | 1013.1 |
| 20260507134907 | 17 | 348 | 12.9 | 32.2 | 0.25 | 4.55 | 0.38 | 92 | 1013.1 |
| 20260507134407 | 17 | 6 | 9.7 | 40.2 | 0.28 | 4.55 | 0.38 | 92 | 1013.1 |
| 20260507133906 | 17 | 0 | 11.3 | 25.7 | 0.28 | 4.52 | 0.36 | 92 | 1013.1 |
| 20260507132907 | 17 | 353 | 12.9 | 32.2 | 0.23 | 4.47 | 0.30 | 92 | 1013.4 |
| 20260507132407 | 17 | 0 | 8.0 | 32.2 | 0.23 | 4.42 | 0.25 | 92 | 1013.3 |
| 20260507131908 | 17 | 4 | 11.3 | 22.5 | 0.20 | 4.39 | 0.23 | 92 | 1013.4 |
| 20260507131406 | 17 | 339 | 14.5 | 29.0 | 0.20 | 4.37 | 0.23 | 92 | 1013.4 |
| 20260507130906 | 17 | 2 | 17.7 | 32.2 | 0.20 | 4.37 | 0.20 | 92 | 1013.5 |
| 20260507125906 | 17 | 345 | 14.5 | 32.2 | 2.26 | 4.34 | 0.18 | 92 | 1013.5 |
| 20260507125406 | 17 | 350 | 11.3 | 41.8 | 2.24 | 4.32 | 0.15 | 92 | 1013.6 |
| 20260507124906 | 17 | 9 | 14.5 | 41.8 | 2.21 | 4.29 | 0.13 | 92 | 1013.6 |
| 20260507123906 | 17 | 357 | 14.5 | 32.2 | 2.18 | 4.24 | 0.08 | 92 | 1013.7 |
| 20260507123406 | 17 | 351 | 16.1 | 32.2 | 2.21 | 4.24 | 0.08 | 92 | 1013.7 |
| 20260507121906 | 17 | 358 | 12.9 | 27.4 | 2.16 | 4.19 | 0.05 | 92 | 1013.7 |
| 20260507121406 | 17 | 359 | 14.5 | 35.4 | 2.13 | 4.19 | 0.03 | 92 | 1013.8 |
| 20260507120906 | 17 | 356 | 16.1 | 25.7 | 2.11 | 4.17 | 0.00 | 92 | 1013.9 |
| 20260507120406 | 17 | 7 | 17.7 | 41.8 | 2.11 | 4.17 | 0.00 | 92 | 1013.8 |
| 20260507115906 | 17 | 353 | 17.7 | 33.8 | 0.05 | 2.11 | 2.08 | 92 | 1013.9 |
| 20260507113906 | 17 | 358 | 17.7 | 40.2 | 0.13 | 2.08 | 2.06 | 92 | 1014.1 |
| 20260507113406 | 17 | 356 | 22.5 | 35.4 | 0.15 | 2.06 | 2.03 | 92 | 1014.1 |
| 20260507112906 | 17 | 5 | 22.5 | 41.8 | 0.15 | 2.06 | 2.03 | 92 | 1014.2 |
| 20260507111906 | 17 | 341 | 16.1 | 35.4 | 0.23 | 2.06 | 2.03 | 92 | 1014.3 |
| 20260507111406 | 17 | 330 | 19.3 | 35.4 | 0.23 | 2.06 | 2.03 | 92 | 1014.4 |
| 20260507110406 | 17 | 348 | 19.3 | 37.0 | 0.33 | 2.06 | 2.03 | 92 | 1014.5 |
| 20260507105906 | 17 | 343 | 19.3 | 40.2 | 0.33 | 2.06 | 2.03 | 92 | 1014.4 |
| 20260507104906 | 17 | 338 | 22.5 | 41.8 | 0.38 | 2.03 | 2.01 | 92 | 1014.4 |
| 20260507103906 | 17 | 355 | 11.3 | 32.2 | 0.38 | 1.96 | 1.93 | 91 | 1014.3 |
| 20260507103406 | 17 | 2 | 9.7 | 27.4 | 0.36 | 1.91 | 1.88 | 91 | 1014.4 |
| 20260507102906 | 17 | 6 | 11.3 | 25.7 | 0.38 | 1.91 | 1.88 | 91 | 1014.5 |
| 20260507102406 | 17 | 355 | 14.5 | 27.4 | 0.38 | 1.88 | 1.85 | 91 | 1014.4 |
| 20260507101905 | 17 | 345 | 16.1 | 40.2 | 0.33 | 1.83 | 1.80 | 91 | 1014.4 |
| 20260507101405 | 17 | 2 | 16.1 | 38.6 | 0.33 | 1.83 | 1.80 | 91 | 1014.5 |
| 20260507100906 | 17 | 10 | 16.1 | 35.4 | 0.33 | 1.78 | 1.75 | 91 | 1014.5 |
| 20260507095906 | 17 | 341 | 8.0 | 20.9 | 0.28 | 1.73 | 1.70 | 91 | 1014.4 |
| 20260507094906 | 17 | 350 | 11.3 | 33.8 | 0.25 | 1.65 | 1.63 | 91 | 1014.5 |
| 20260507094406 | 17 | 14 | 16.1 | 40.2 | 0.28 | 1.63 | 1.60 | 91 | 1014.4 |
| 20260507092907 | 17 | 9 | 9.7 | 27.4 | 0.23 | 1.52 | 1.50 | 91 | 1014.4 |
| 20260507091907 | 17 | 357 | 19.3 | 38.6 | 0.23 | 1.50 | 1.47 | 91 | 1014.5 |
| 20260507091406 | 17 | 9 | 12.9 | 40.2 | 0.23 | 1.47 | 1.45 | 91 | 1014.5 |
| 20260507090906 | 17 | 8 | 14.5 | 33.8 | 0.23 | 1.45 | 1.45 | 91 | 1014.5 |
| 20260507090406 | 17 | 11 | 11.3 | 29.0 | 0.23 | 1.45 | 1.42 | 91 | 1014.5 |
| 20260507085906 | 17 | 26 | 12.9 | 38.6 | 0.25 | 1.45 | 1.42 | 91 | 1014.5 |
| 20260507085406 | 17 | 12 | 16.1 | 35.4 | 0.23 | 1.42 | 1.40 | 91 | 1014.6 |
| 20260507084906 | 17 | 9 | 22.5 | 49.9 | 0.23 | 1.37 | 1.37 | 91 | 1014.8 |
| 20260507084406 | 17 | 17 | 14.5 | 41.8 | 0.20 | 1.35 | 1.32 | 91 | 1014.7 |
| 20260507083906 | 17 | 357 | 20.9 | 41.8 | 0.18 | 1.30 | 1.27 | 91 | 1014.8 |
| 20260507083406 | 17 | 349 | 14.5 | 46.7 | 0.20 | 1.30 | 1.27 | 91 | 1014.7 |
| 20260507082406 | 17 | 7 | 19.3 | 37.0 | 0.18 | 1.27 | 1.27 | 91 | 1014.8 |
| 20260507081906 | 17 | 351 | 14.5 | 27.4 | 0.15 | 1.27 | 1.24 | 91 | 1014.8 |
| 20260507081406 | 17 | 4 | 22.5 | 41.8 | 0.18 | 1.27 | 1.24 | 91 | 1014.9 |
| 20260507080905 | 17 | 3 | 20.9 | 40.2 | 0.15 | 1.24 | 1.22 | 91 | 1014.9 |
| 20260507080406 | 17 | 4 | 22.5 | 41.8 | 0.15 | 1.22 | 1.19 | 91 | 1014.8 |
| 20260507075906 | 17 | 17 | 12.9 | 33.8 | 0.13 | 1.17 | 1.17 | 91 | 1014.8 |
| 20260507075406 | 17 | 8 | 17.7 | 33.8 | 0.13 | 1.17 | 1.17 | 91 | 1015.0 |
| 20260507074906 | 17 | 11 | 25.7 | 45.1 | 0.08 | 1.14 | 1.12 | 91 | 1015.0 |
| 20260507073906 | 17 | 338 | 19.3 | 40.2 | 0.05 | 1.12 | 1.09 | 91 | 1014.9 |
| 20260507073406 | 17 | 14 | 16.1 | 37.0 | 0.08 | 1.09 | 1.09 | 91 | 1015.0 |
| 20260507072906 | 17 | 17 | 22.5 | 45.1 | 0.10 | 1.09 | 1.09 | 91 | 1015.0 |
| 20260507072406 | 17 | 14 | 22.5 | 38.6 | 0.13 | 1.09 | 1.09 | 91 | 1015.1 |
| 20260507071906 | 17 | 11 | 22.5 | 46.7 | 0.13 | 1.09 | 1.09 | 91 | 1014.9 |
| 20260507071406 | 17 | 6 | 22.5 | 51.5 | 0.15 | 1.09 | 1.07 | 91 | 1014.7 |
| 20260507070906 | 17 | 8 | 22.5 | 57.9 | 0.15 | 1.09 | 1.07 | 91 | 1014.8 |
| 20260507070406 | 17 | 7 | 14.5 | 32.2 | 0.18 | 1.07 | 1.04 | 91 | 1014.8 |
| 20260507065906 | 17 | 7 | 16.1 | 33.8 | 0.23 | 1.07 | 1.04 | 91 | 1014.8 |
| 20260507065406 | 17 | 3 | 14.5 | 41.8 | 0.28 | 1.07 | 1.04 | 91 | 1014.9 |
| 20260507064906 | 17 | 10 | 20.9 | 41.8 | 0.33 | 1.07 | 1.04 | 91 | 1014.9 |
| 20260507064406 | 17 | 10 | 11.3 | 41.8 | 0.38 | 1.07 | 1.04 | 91 | 1015.0 |
| 20260507063905 | 17 | 7 | 24.1 | 53.1 | 0.41 | 1.07 | 1.04 | 91 | 1015.1 |
| 20260507063406 | 17 | 12 | 22.5 | 41.8 | 0.41 | 1.02 | 0.99 | 91 | 1015.2 |
| 20260507062906 | 17 | 19 | 24.1 | 56.3 | 0.41 | 0.99 | 0.99 | 91 | 1015.3 |
| 20260507062405 | 17 | 5 | 20.9 | 45.1 | 0.41 | 0.99 | 0.97 | 91 | 1015.3 |
| 20260507061406 | 17 | 14 | 19.3 | 35.4 | 0.46 | 0.94 | 0.91 | 91 | 1015.2 |
| 20260507060406 | 17 | 20 | 12.9 | 37.0 | 0.41 | 0.89 | 0.86 | 91 | 1015.3 |
| 20260507055905 | 17 | 355 | 8.0 | 32.2 | 0.36 | 0.84 | 0.81 | 90 | 1015.4 |
| 20260507055408 | 17 | 1 | 8.0 | 33.8 | 0.33 | 0.79 | 0.76 | 90 | 1015.4 |
| 20260507054906 | 17 | 4 | 16.1 | 35.4 | 0.28 | 0.74 | 0.71 | 90 | 1015.5 |
| 20260507054406 | 17 | 1 | 14.5 | 32.2 | 0.23 | 0.69 | 0.66 | 90 | 1015.4 |
| 20260507053906 | 17 | 7 | 27.4 | 48.3 | 0.20 | 0.66 | 0.64 | 90 | 1015.6 |
| 20260507053406 | 17 | 359 | 14.5 | 35.4 | 0.15 | 0.61 | 0.61 | 90 | 1015.6 |
| 20260507052906 | 17 | 350 | 16.1 | 33.8 | 0.15 | 0.61 | 0.58 | 90 | 1015.7 |
| 20260507052406 | 17 | 354 | 22.5 | 38.6 | 0.13 | 0.58 | 0.56 | 90 | 1015.8 |
| 20260507051905 | 17 | 341 | 19.3 | 40.2 | 0.05 | 0.51 | 0.48 | 90 | 1015.8 |
| 20260507051406 | 17 | 6 | 9.7 | 27.4 | 0.05 | 0.48 | 0.46 | 90 | 1015.7 |
| 20260507050906 | 17 | 350 | 19.3 | 37.0 | 0.05 | 0.48 | 0.46 | 90 | 1015.7 |
| 20260507050406 | 17 | 1 | 17.7 | 29.0 | 0.05 | 0.48 | 0.46 | 90 | 1015.7 |
| 20260507045905 | 17 | 357 | 11.3 | 33.8 | 0.05 | 0.48 | 0.46 | 90 | 1015.6 |
| 20260507045406 | 17 | 13 | 14.5 | 25.7 | 0.03 | 0.46 | 0.43 | 90 | 1015.5 |
| 20260507044406 | 17 | 354 | 14.5 | 32.2 | 0.03 | 0.46 | 0.43 | 90 | 1015.5 |
| 20260507043906 | 17 | 359 | 17.7 | 38.6 | 0.03 | 0.46 | 0.43 | 90 | 1015.6 |
| 20260507043405 | 17 | 18 | 16.1 | 46.7 | 0.03 | 0.46 | 0.43 | 90 | 1015.6 |
| 20260507042906 | 17 | 20 | 12.9 | 27.4 | 0.03 | 0.46 | 0.43 | 89 | 1015.7 |
| 20260507042406 | 17 | 14 | 17.7 | 32.2 | 0.03 | 0.46 | 0.43 | 89 | 1015.8 |
| 20260507041906 | 17 | 6 | 25.7 | 41.8 | 0.00 | 0.43 | 0.43 | 89 | 1015.7 |
| 20260507041406 | 17 | 8 | 24.1 | 37.0 | 0.00 | 0.43 | 0.43 | 90 | 1015.8 |
| 20260507040905 | 17 | 357 | 19.3 | 35.4 | 0.00 | 0.43 | 0.43 | 89 | 1016.0 |
| 20260507040405 | 17 | 20 | 14.5 | 33.8 | 0.00 | 0.43 | 0.43 | 90 | 1016.1 |
| 20260507034906 | 17 | 359 | 16.1 | 32.2 | 0.00 | 0.43 | 0.43 | 90 | 1016.0 |
| 20260507034406 | 17 | 0 | 14.5 | 27.4 | 0.00 | 0.43 | 0.43 | 90 | 1016.1 |
| 20260507033906 | 17 | 7 | 14.5 | 27.4 | 0.00 | 0.43 | 0.43 | 90 | 1016.1 |
| 20260507033405 | 17 | 20 | 14.5 | 35.4 | 0.00 | 0.43 | 0.43 | 90 | 1016.2 |
| 20260507032406 | 17 | 358 | 22.5 | 41.8 | 0.00 | 0.43 | 0.43 | 90 | 1016.3 |
| 20260507031906 | 17 | 8 | 17.7 | 33.8 | 0.00 | 0.43 | 0.43 | 90 | 1016.3 |
| 20260507031405 | 17 | 13 | 16.1 | 27.4 | 0.00 | 0.43 | 0.43 | 90 | 1016.3 |
| 20260507030906 | 17 | 9 | 20.9 | 45.1 | 0.00 | 0.43 | 0.43 | 90 | 1016.4 |
| 20260507030406 | 17 | 0 | 9.7 | 33.8 | 0.00 | 0.43 | 0.43 | 90 | 1016.5 |
| 20260507025906 | 17 | 12 | 25.7 | 46.7 | 0.00 | 0.43 | 0.43 | 90 | 1016.6 |
| 20260507025405 | 17 | 14 | 16.1 | 49.9 | 0.00 | 0.43 | 0.43 | 90 | 1016.6 |
| 20260507024906 | 17 | 11 | 17.7 | 46.7 | 0.00 | 0.43 | 0.43 | 90 | 1016.7 |
| 20260507024405 | 17 | 8 | 19.3 | 38.6 | 0.00 | 0.43 | 0.43 | 90 | 1016.7 |
| 20260507023406 | 17 | 355 | 16.1 | 32.2 | 0.00 | 0.43 | 0.43 | 90 | 1017.0 |
| 20260507021906 | 17 | 16 | 17.7 | 35.4 | 0.00 | 0.43 | 0.43 | 90 | 1017.1 |
| 20260507021405 | 17 | 7 | 22.5 | 38.6 | 0.03 | 0.43 | 0.43 | 90 | 1017.4 |
| 20260507020906 | 17 | 8 | 14.5 | 38.6 | 0.05 | 0.43 | 0.43 | 90 | 1017.3 |
| 20260507020408 | 17 | 2 | 20.9 | 41.8 | 0.05 | 0.43 | 0.43 | 91 | 1017.3 |
| 20260507015406 | 17 | 9 | 17.7 | 35.4 | 0.05 | 0.43 | 0.43 | 91 | 1017.4 |
| 20260507014406 | 17 | 3 | 20.9 | 35.4 | 0.05 | 0.43 | 0.43 | 91 | 1017.7 |
| 20260507013906 | 17 | 358 | 22.5 | 48.3 | 0.05 | 0.43 | 0.43 | 91 | 1017.8 |
| 20260507013405 | 17 | 10 | 19.3 | 35.4 | 0.05 | 0.43 | 0.43 | 90 | 1017.8 |
| 20260507012905 | 17 | 10 | 22.5 | 40.2 | 0.05 | 0.43 | 0.43 | 90 | 1017.9 |
| 20260507011906 | 17 | 1 | 16.1 | 38.6 | 0.05 | 0.43 | 0.43 | 90 | 1018.0 |
| 20260507011405 | 17 | 3 | 11.3 | 32.2 | 0.05 | 0.43 | 0.41 | 91 | 1018.2 |
| 20260507010905 | 17 | 355 | 16.1 | 41.8 | 0.03 | 0.41 | 0.38 | 91 | 1018.3 |
| 20260507010405 | 17 | 0 | 12.9 | 32.2 | 0.03 | 0.41 | 0.38 | 91 | 1018.4 |
| 20260507005906 | 17 | 4 | 19.3 | 35.4 | 0.03 | 0.41 | 0.38 | 91 | 1018.6 |
| 20260507005406 | 17 | 359 | 11.3 | 29.0 | 0.03 | 0.38 | 0.36 | 91 | 1018.6 |
| 20260507004905 | 17 | 14 | 17.7 | 41.8 | 0.05 | 0.38 | 0.36 | 90 | 1018.7 |
| 20260507003906 | 17 | 24 | 14.5 | 29.0 | 0.10 | 0.38 | 0.36 | 91 | 1018.9 |
| 20260507003407 | 17 | 7 | 19.3 | 35.4 | 0.10 | 0.38 | 0.36 | 91 | 1018.9 |
| 20260507002906 | 17 | 13 | 25.7 | 41.8 | 0.10 | 0.38 | 0.36 | 91 | 1019.0 |
| 20260507002407 | 17 | 2 | 12.9 | 22.5 | 0.10 | 0.38 | 0.36 | 90 | 1019.1 |
| 20260507001907 | 17 | 16 | 22.5 | 37.0 | 0.10 | 0.38 | 0.36 | 90 | 1019.2 |
| 20260507001407 | 17 | 356 | 20.9 | 29.0 | 0.10 | 0.38 | 0.36 | 90 | 1019.2 |
| 20260507000906 | 17 | 16 | 17.7 | 32.2 | 0.10 | 0.38 | 0.36 | 90 | 1019.4 |
| 20260507000406 | 16 | 7 | 12.9 | 27.4 | 0.10 | 0.38 | 0.36 | 90 | 1019.4 |
| 20260506235906 | 16 | 8 | 19.3 | 41.8 | 0.10 | 0.38 | 0.36 | 90 | 1019.4 |
| 20260506235408 | 16 | 8 | 11.3 | 29.0 | 0.08 | 0.36 | 0.33 | 90 | 1019.6 |
| 20260506234906 | 17 | 344 | 16.1 | 32.2 | 0.05 | 0.33 | 0.33 | 90 | 1019.6 |
| 20260506234407 | 17 | 6 | 12.9 | 32.2 | 0.05 | 0.33 | 0.30 | 90 | 1019.7 |
| 20260506233906 | 17 | 6 | 19.3 | 29.0 | 0.00 | 0.28 | 0.25 | 90 | 1019.8 |
| 20260506232407 | 17 | 7 | 8.0 | 33.8 | 0.00 | 0.28 | 0.25 | 90 | 1019.8 |
| 20260506231906 | 17 | 14 | 12.9 | 24.1 | 0.00 | 0.28 | 0.25 | 89 | 1019.8 |
| 20260506231408 | 17 | 22 | 16.1 | 33.8 | 0.00 | 0.28 | 0.25 | 89 | 1020.1 |
| 20260506230906 | 17 | 10 | 14.5 | 25.7 | 0.00 | 0.28 | 0.25 | 89 | 1020.0 |
| 20260506230406 | 17 | 23 | 12.9 | 22.5 | 0.00 | 0.28 | 0.25 | 89 | 1020.0 |
| 20260506225906 | 17 | 6 | 8.0 | 24.1 | 0.00 | 0.28 | 0.25 | 89 | 1020.1 |
| 20260506224906 | 17 | 5 | 9.7 | 20.9 | 0.00 | 0.28 | 0.25 | 89 | 1020.1 |
| 20260506224406 | 17 | 6 | 14.5 | 22.5 | 0.00 | 0.28 | 0.25 | 89 | 1020.2 |
| 20260506223907 | 17 | 10 | 14.5 | 25.7 | 0.00 | 0.28 | 0.25 | 89 | 1020.2 |
| 20260506223407 | 17 | 3 | 17.7 | 27.4 | 0.00 | 0.28 | 0.25 | 89 | 1020.3 |
| 20260506222907 | 17 | 17 | 11.3 | 22.5 | 0.00 | 0.28 | 0.25 | 89 | 1020.3 |
| 20260506222408 | 17 | 6 | 14.5 | 35.4 | 0.00 | 0.28 | 0.25 | 89 | 1020.4 |
| 20260506220406 | 17 | 4 | 16.1 | 29.0 | 0.00 | 0.30 | 0.25 | 89 | 1020.5 |
| 20260506215906 | 17 | 359 | 12.9 | 25.7 | 0.00 | 0.30 | 0.25 | 89 | 1020.6 |
| 20260506215406 | 17 | 356 | 11.3 | 35.4 | 0.00 | 0.30 | 0.25 | 90 | 1020.6 |
| 20260506214906 | 17 | 6 | 14.5 | 24.1 | 0.00 | 0.30 | 0.25 | 90 | 1020.7 |
| 20260506214406 | 17 | 7 | 9.7 | 20.9 | 0.00 | 0.30 | 0.25 | 90 | 1020.8 |
| 20260506213906 | 17 | 0 | 9.7 | 22.5 | 0.00 | 0.30 | 0.25 | 90 | 1020.9 |
| 20260506212906 | 17 | 356 | 11.3 | 22.5 | 0.00 | 0.30 | 0.25 | 90 | 1021.0 |
| 20260506212406 | 17 | 11 | 11.3 | 22.5 | 0.00 | 0.30 | 0.25 | 90 | 1021.0 |
| 20260506211906 | 17 | 0 | 19.3 | 29.0 | 0.00 | 0.30 | 0.25 | 90 | 1021.1 |
| 20260506211407 | 17 | 12 | 14.5 | 32.2 | 0.00 | 0.30 | 0.25 | 90 | 1021.0 |
| 20260506210908 | 17 | 355 | 19.3 | 27.4 | 0.00 | 0.30 | 0.25 | 90 | 1021.1 |
| 20260506210407 | 17 | 7 | 14.5 | 29.0 | 0.00 | 0.30 | 0.25 | 90 | 1021.1 |
| 20260506205905 | 17 | 6 | 11.3 | 19.3 | 0.00 | 0.30 | 0.25 | 90 | 1021.1 |
| 20260506205407 | 17 | 16 | 9.7 | 22.5 | 0.00 | 0.30 | 0.25 | 90 | 1021.1 |
| 20260506204906 | 17 | 1 | 9.7 | 19.3 | 0.00 | 0.30 | 0.25 | 90 | 1021.2 |
| 20260506204406 | 17 | 16 | 11.3 | 25.7 | 0.00 | 0.30 | 0.25 | 90 | 1021.2 |
| 20260506203906 | 17 | 358 | 11.3 | 27.4 | 0.00 | 0.30 | 0.25 | 90 | 1021.3 |
| 20260506203406 | 17 | 8 | 8.0 | 25.7 | 0.00 | 0.30 | 0.25 | 90 | 1021.3 |
| 20260506202906 | 17 | 21 | 16.1 | 27.4 | 0.00 | 0.30 | 0.25 | 90 | 1021.2 |
| 20260506201906 | 17 | 14 | 9.7 | 19.3 | 0.00 | 0.30 | 0.25 | 90 | 1021.3 |
| 20260506201406 | 17 | 95 | 9.7 | 27.4 | 0.00 | 0.30 | 0.25 | 90 | 1021.3 |
| 20260506200906 | 17 | 13 | 12.9 | 24.1 | 0.00 | 0.30 | 0.25 | 90 | 1021.3 |
| 20260506194906 | 17 | 10 | 8.0 | 25.7 | 0.00 | 0.30 | 0.25 | 91 | 1021.3 |
| 20260506194406 | 17 | 0 | 12.9 | 27.4 | 0.00 | 0.30 | 0.25 | 91 | 1021.2 |
| 20260506193906 | 17 | 358 | 12.9 | 22.5 | 0.00 | 0.30 | 0.25 | 90 | 1021.3 |
| 20260506192906 | 16 | 13 | 16.1 | 32.2 | 0.00 | 0.30 | 0.25 | 90 | 1021.2 |
| 20260506191906 | 16 | 6 | 20.9 | 37.0 | 0.00 | 0.30 | 0.25 | 90 | 1021.2 |
| 20260506191406 | 16 | 2 | 19.3 | 29.0 | 0.00 | 0.30 | 0.25 | 91 | 1021.1 |
| 20260506190906 | 16 | 3 | 12.9 | 32.2 | 0.00 | 0.30 | 0.25 | 91 | 1021.1 |
| 20260506190405 | 16 | 6 | 14.5 | 29.0 | 0.00 | 0.30 | 0.25 | 90 | 1021.2 |